Location: Granada
(37.1830°N, 3.6000°W)
Time: 04:49:42
(UTC+02:00)

Iridium 70 - Visible Passes

Search period start: 26 April 2015 00:00
Search period end: 06 May 2015 00:00
Orbit: 776 x 779 km, 86.4° (Epoch: 25 April)

Date Brightness Start Highest point End Pass type
(mag) Time Alt. Az. Time Alt. Az. Time Alt. Az.
26 Apr 7.6 00:12:43 18° NE 00:12:43 18° NE 00:14:18 10° NNE visible
26 Apr 7.9 01:53:10 18° NW 01:53:10 18° NW 01:54:50 10° NNW visible
26 Apr 7.8 23:39:03 12° NE 23:39:03 12° NE 23:39:40 10° NE visible
27 Apr 7.5 01:19:31 26° NNW 01:19:31 26° NNW 01:21:50 10° N visible
28 Apr 7.1 00:45:50 30° N 00:45:50 30° N 00:48:27 10° N visible
29 Apr 7.1 00:12:10 27° NNE 00:12:10 27° NNE 00:14:43 10° NNE visible
29 Apr 8.0 01:52:37 15° NW 01:52:37 15° NW 01:54:16 10° NW visible
29 Apr 7.3 23:38:29 19° NE 23:38:29 19° NE 23:40:32 10° NNE visible
30 Apr 7.4 01:18:56 26° NW 01:18:56 26° NW 01:21:40 10° NNW visible
30 Apr 7.7 23:04:46 11° ENE 23:04:46 11° ENE 23:05:20 10° NE visible
01 May 6.8 00:45:14 38° NNW 00:45:14 38° NNW 00:48:30 10° N visible
02 May 6.4 00:11:31 41° NNE 00:11:31 41° NNE 00:14:59 10° N visible
02 May 8.1 01:51:57 12° WNW 01:51:57 12° WNW 01:53:08 10° NW visible
02 May 6.7 23:37:47 29° NE 23:37:47 29° NE 23:41:05 10° NNE visible
03 May 7.5 01:18:14 22° WNW 01:18:14 22° WNW 01:21:18 10° NNW visible
03 May 7.2 23:04:03 18° ENE 23:04:03 18° ENE 23:06:38 10° NE visible
04 May 6.7 00:44:29 39° NW 00:44:29 39° NW 00:48:25 10° NNW visible
05 May 5.8 00:10:44 63° N 00:10:44 63° N 00:15:06 10° N visible
05 May 5.9 23:36:58 48° ENE 23:36:58 48° ENE 23:41:26 10° NNE visible
